PALISADE (44634 NORAD) Tracking and Keplerian Element Data

This shows tracking and keplerian element data for the satellite.

Feedback or suggestion? Click here.




ElementValue
Catalog44634
NamePALISADE
Epoch Orbit350
Epoch Day316.70512
Epoch Year2019
RAAN38.3078
Inclination87.8971
Eccentricity0.0010707
Argument of Perigee58.7025
Mean Anonmoly301.515
Mean Motion13.11818928
Decay Rate-4E-07
L11 44634U 19069A 19316.70512000 -.00000040 00000-0 -14770-3 0 9999
L22 44634 87.8971 38.3078 0010707 58.7025 301.5150 13.11818928 3509

Live tracking and technical data element details for PALISADE (NORAD 44634). PALISADE can be tracked NOW for your location showing map with azimuth and elevation plus other details from your city location.

Track the satellite on the map from your city or location and see movement details for azimuth, elevation, latitude, longitude, range, height, and movement on the map or in text.







IsCatalogInMostPopularTable: catalog: 44634, numindb: 12
Update: records affected: 1



GetName: 44634 PALISADE

Hit Count: updated at: Thu, 14 Nov 2019 05:59:10 GMT